SCP
0 0 0 0 0 0 0 0 0 0 0 0 0 0 0 0 0 0 0 0 0 0
0 0 0 0 0 0 0 0 0 0 0 0 0 0 0 0 0 0 0 0 0 0
0 0 0 0 0 0 0 0 0 0 0 0 0 0 0 0 0 0 0 0 0 0
0 0 0 0 0 0 0 0 0 0 0 0 0 0 0 0 0 0 0 0 0 0
0 0 0 0 0 0 0 0 0 0 0 0 0 0 0 0 0 0 0 0 0 0
0 0 0 0 0 0 0 0 0 0 0 0 0 0 0 0 0 0 0 0 0 0
0 0 0 0 0 0 0 0 0 0 0 0 0 0 0 0 0 0 0 0 0 0
0 0 0 0 0 0 0 0 0 0 0 0 0 0 0 0 0 0 0 0 0 0
0 0 0 0 0 0 0 0 0 0 0 0 0 0 0 0 0 0 0 0 0 0
0 0 0 0 0 0 0 0 0 0 0 0 0 0 0 0 0 0 0 0 0 0
-0 0 0 0 0 0 0 0 0 0 0 0 0 0 0 0 0 0 0 0 0 0
-0 -0 0 0 0 0 0 0 0 0 0 0 0 0 0 0 0 0 0 0 0 0
0 0 0 0 0 0 0 0 0 0 0 0 0 0 0 0 0 0 0 0 0 0
0 0 0 0 0 0 0 0 0 0 0 0 0 0 0 0 0 0 0 0 0 0
Wind_Speed_500mb
54 58 61 63 64 70 68 64 60 62 68 78 81 85 88 89 90 92 97 100 113 98
42 46 48 49 54 59 57 56 53 55 61 68 75 82 88 93 96 98 96 100 99 103
20 25 31 36 40 43 44 47 49 53 58 63 69 74 79 84 86 88 85 91 94 100
15 20 26 32 33 38 43 46 51 52 56 60 61 63 66 71 74 78 78 86 90 87
22 29 33 37 40 45 50 54 56 56 58 59 58 58 61 64 67 71 74 77 81 88
29 34 39 45 49 52 57 61 63 64 63 59 59 58 60 62 64 68 70 68 71 75
42 46 50 52 55 59 61 65 68 68 64 62 61 62 63 64 66 68 67 62 65 68
45 49 54 57 61 66 70 70 68 67 67 66 66 64 64 65 66 67 64 61 62 66
52 55 56 59 61 65 66 67 67 66 65 66 66 62 63 65 66 65 62 63 61 63
57 61 60 61 61 60 59 60 62 64 66 67 66 64 63 63 64 62 63 64 62 63
54 55 56 59 60 59 60 62 65 66 66 67 63 62 63 61 63 61 61 62 62 64
56 56 55 54 55 57 59 58 58 59 59 62 60 59 58 57 62 62 62 62 62 61
54 56 56 55 53 51 51 53 55 58 59 60 60 56 54 54 61 61 59 60 58 58
49 51 53 53 54 52 51 52 52 53 55 57 57 54 52 51 61 57 55 56 54 50
Wind_Direction_500mb
251 256 261 263 265 266 267 268 267 263 260 259 261 260 264 264 267 263 264 262 267 262
251 255 259 263 264 264 264 265 263 259 256 256 257 260 263 265 266 266 265 265 264 267
262 263 260 255 258 263 264 265 264 262 260 258 258 259 260 262 265 267 266 263 264 266
320 307 290 282 278 278 277 271 269 267 265 263 262 260 260 262 265 267 266 263 263 263
296 288 295 300 295 286 280 277 275 274 272 270 267 264 263 265 266 267 266 264 263 266
292 290 285 282 285 284 279 275 273 271 270 271 271 270 269 268 267 266 266 266 265 265
285 284 282 280 279 281 283 277 273 273 272 270 269 267 267 267 267 266 264 261 261 263
293 287 284 283 283 285 285 283 277 273 272 271 270 270 270 270 269 267 266 263 260 260
303 300 296 291 286 283 281 279 276 273 272 272 273 273 269 268 267 265 265 262 264 264
307 305 303 299 293 288 283 278 275 273 273 273 273 272 271 268 266 266 265 263 263 263
310 306 305 302 299 294 287 282 279 276 274 273 272 270 269 267 265 262 264 267 268 268
318 314 311 309 305 299 293 288 284 281 277 275 274 270 266 263 263 262 262 264 265 265
318 317 314 312 309 305 300 296 290 285 281 277 275 270 268 265 265 263 267 268 265 262
316 315 314 314 311 307 303 299 293 288 283 278 276 274 270 263 264 265 265 264 263 261
Wind_Speed_850mb
54 58 61 63 64 70 68 64 60 62 68 78 81 85 88 89 90 92 97 100 113 98
42 46 48 49 54 59 57 56 53 55 61 68 75 82 88 93 96 98 96 100 99 103
20 25 31 36 40 43 44 47 49 53 58 63 69 74 79 84 86 88 85 91 94 100
15 20 26 32 33 38 43 46 51 52 56 60 61 63 66 71 74 78 78 86 90 87
22 29 33 37 40 45 50 54 56 56 58 59 58 58 61 64 67 71 74 77 81 88
29 34 39 45 49 52 57 61 63 64 63 59 59 58 60 62 64 68 70 68 71 75
42 46 50 52 55 59 61 65 68 68 64 62 61 62 63 64 66 68 67 62 65 68
45 49 54 57 61 66 70 70 68 67 67 66 66 64 64 65 66 67 64 61 62 66
52 55 56 59 61 65 66 67 67 66 65 66 66 62 63 65 66 65 62 63 61 63
57 61 60 61 61 60 59 60 62 64 66 67 66 64 63 63 64 62 63 64 62 63
54 55 56 59 60 59 60 62 65 66 66 67 63 62 63 61 63 61 61 62 62 64
56 56 55 54 55 57 59 58 58 59 59 62 60 59 58 57 62 62 62 62 62 61
54 56 56 55 53 51 51 53 55 58 59 60 60 56 54 54 61 61 59 60 58 58
49 51 53 53 54 52 51 52 52 53 55 57 57 54 52 51 61 57 55 56 54 50
Wind_Direction_850mb
251 256 261 263 265 266 267 268 267 263 260 259 261 260 264 264 267 263 264 262 267 262
251 255 259 263 264 264 264 265 263 259 256 256 257 260 263 265 266 266 265 265 264 267
262 263 260 255 258 263 264 265 264 262 260 258 258 259 260 262 265 267 266 263 264 266
320 307 290 282 278 278 277 271 269 267 265 263 262 260 260 262 265 267 266 263 263 263
296 288 295 300 295 286 280 277 275 274 272 270 267 264 263 265 266 267 266 264 263 266
292 290 285 282 285 284 279 275 273 271 270 271 271 270 269 268 267 266 266 266 265 265
285 284 282 280 279 281 283 277 273 273 272 270 269 267 267 267 267 266 264 261 261 263
293 287 284 283 283 285 285 283 277 273 272 271 270 270 270 270 269 267 266 263 260 260
303 300 296 291 286 283 281 279 276 273 272 272 273 273 269 268 267 265 265 262 264 264
307 305 303 299 293 288 283 278 275 273 273 273 273 272 271 268 266 266 265 263 263 263
310 306 305 302 299 294 287 282 279 276 274 273 272 270 269 267 265 262 264 267 268 268
318 314 311 309 305 299 293 288 284 281 277 275 274 270 266 263 263 262 262 264 265 265
318 317 314 312 309 305 300 296 290 285 281 277 275 270 268 265 265 263 267 268 265 262
316 315 314 314 311 307 303 299 293 288 283 278 276 274 270 263 264 265 265 264 263 261